Accueil
METAR-TAF:

METAR-TAF

Aéroports :

RAF

Holbeach, Angleterre

latitude: 52-52N, longitude: 000-09E, altitude: 3 m

Observation

Le bulletin a été fait il y a 1 heure et 9 minutes, à 16:50 UTC
Vent 20 kt de sud/sud-ouest
Température 15°C
Humidité 77%
Pression 1011 hPa
Visibilité 10 km ou plus
Nuages fragmentés à une hauteur de 2000 ft
averses de pluie

METAR: EGYH 281650Z 20020KT 9999 SHRA BKN020 15/11 Q1011 RMK WHT

Heure: 18:59 (17:59 UTC)


TAF: absent

Observations et prévisions météorologiques de plus de 4000 aéroports (messages METAR et TAF).

Les stations disponibles sont représentées par des disques jaunes et rouges sur la carte.

Passer la souris dessus pour voir le nom de la station.

Cliquer dessus pour voir les observations et prévisions météorologiques.

Pour changer de carte: cliquez sur les boutons verts avec une croix noire pour zoomer, sur le bouton vert avec un tiret pour effectuer un zoom arrière, ou sur les flèches vertes pour les cartes adjacentes.


METAR-TAF: